owner,sensor,date,latitude,longitude,sea_surface_height_above_sea_level,qcFlag 
TCOON,ioos:station:TCOON:005:1,2016-12-01T00:18:00Z,27.6346,-97.2370,1.066,1111122 
TCOON,ioos:station:TCOON:005:1,2016-12-01T01:18:00Z,27.6346,-97.2370,1.082,1111122 
TCOON,ioos:station:TCOON:005:1,2016-12-01T02:18:00Z,27.6346,-97.2370,1.097,1111122 
TCOON,ioos:station:TCOON:005:1,2016-12-01T03:18:00Z,27.6346,-97.2370,1.121,1111122 
TCOON,ioos:station:TCOON:005:1,2016-12-01T04:18:00Z,27.6346,-97.2370,1.137,1111122 
TCOON,ioos:station:TCOON:005:1,2016-12-01T05:18:00Z,27.6346,-97.2370,1.151,1111122 
TCOON,ioos:station:TCOON:005:1,2016-12-01T06:18:00Z,27.6346,-97.2370,1.156,1111122 
TCOON,ioos:station:TCOON:005:1,2016-12-01T07:18:00Z,27.6346,-97.2370,1.163,1111122 
TCOON,ioos:station:TCOON:005:1,2016-12-01T08:18:00Z,27.6346,-97.2370,1.17,1111122 
TCOON,ioos:station:TCOON:005:1,2016-12-01T09:18:00Z,27.6346,-97.2370,1.176,1111122 
TCOON,ioos:station:TCOON:005:1,2016-12-01T10:18:00Z,27.6346,-97.2370,1.176,1111122 
TCOON,ioos:station:TCOON:005:1,2016-12-01T11:18:00Z,27.6346,-97.2370,1.175,1111122 
TCOON,ioos:station:TCOON:005:1,2016-12-01T12:18:00Z,27.6346,-97.2370,1.168,1111122 
TCOON,ioos:station:TCOON:005:1,2016-12-01T13:18:00Z,27.6346,-97.2370,1.159,1111122 
TCOON,ioos:station:TCOON:005:1,2016-12-01T14:18:00Z,27.6346,-97.2370,1.14,1111122 
TCOON,ioos:station:TCOON:005:1,2016-12-01T15:18:00Z,27.6346,-97.2370,1.12,1111122 
TCOON,ioos:station:TCOON:005:1,2016-12-01T16:18:00Z,27.6346,-97.2370,1.098,1111122 
TCOON,ioos:station:TCOON:005:1,2016-12-01T17:36:00Z,27.6346,-97.2370,1.077,1111122 
TCOON,ioos:station:TCOON:005:1,2016-12-01T18:18:00Z,27.6346,-97.2370,1.072,1111122 
TCOON,ioos:station:TCOON:005:1,2016-12-01T19:18:00Z,27.6346,-97.2370,1.066,1111122 
TCOON,ioos:station:TCOON:005:1,2016-12-01T20:18:00Z,27.6346,-97.2370,1.062,1111122 
TCOON,ioos:station:TCOON:005:1,2016-12-01T21:18:00Z,27.6346,-97.2370,1.061,1111122 
TCOON,ioos:station:TCOON:005:1,2016-12-01T22:18:00Z,27.6346,-97.2370,1.063,1111122 
TCOON,ioos:station:TCOON:005:1,2016-12-01T23:18:00Z,27.6346,-97.2370,1.071,1111122 
TCOON,ioos:station:TCOON:005:1,2016-12-02T00:18:00Z,27.6346,-97.2370,1.085,1111122 
TCOON,ioos:station:TCOON:005:1,2016-12-02T01:18:00Z,27.6346,-97.2370,1.104,1111122 
TCOON,ioos:station:TCOON:005:1,2016-12-02T02:18:00Z,27.6346,-97.2370,1.125,1111122 
TCOON,ioos:station:TCOON:005:1,2016-12-02T03:18:00Z,27.6346,-97.2370,1.147,1111122 
TCOON,ioos:station:TCOON:005:1,2016-12-02T04:18:00Z,27.6346,-97.2370,1.162,1111122 
TCOON,ioos:station:TCOON:005:1,2016-12-02T05:18:00Z,27.6346,-97.2370,1.175,1111122 
TCOON,ioos:station:TCOON:005:1,2016-12-02T06:18:00Z,27.6346,-97.2370,1.182,1111122 
TCOON,ioos:station:TCOON:005:1,2016-12-02T07:18:00Z,27.6346,-97.2370,1.196,1111122 
TCOON,ioos:station:TCOON:005:1,2016-12-02T08:18:00Z,27.6346,-97.2370,1.21,1111122 
TCOON,ioos:station:TCOON:005:1,2016-12-02T09:18:00Z,27.6346,-97.2370,1.228,1111122 
TCOON,ioos:station:TCOON:005:1,2016-12-02T10:18:00Z,27.6346,-97.2370,1.237,1111122 
TCOON,ioos:station:TCOON:005:1,2016-12-02T11:18:00Z,27.6346,-97.2370,1.241,1111122 
TCOON,ioos:station:TCOON:005:1,2016-12-02T12:18:00Z,27.6346,-97.2370,1.242,1111122 
TCOON,ioos:station:TCOON:005:1,2016-12-02T13:18:00Z,27.6346,-97.2370,1.237,1111122 
TCOON,ioos:station:TCOON:005:1,2016-12-02T14:18:00Z,27.6346,-97.2370,1.222,1111122 
TCOON,ioos:station:TCOON:005:1,2016-12-02T15:18:00Z,27.6346,-97.2370,1.205,1111122 
TCOON,ioos:station:TCOON:005:1,2016-12-02T16:18:00Z,27.6346,-97.2370,1.182,1111122 
TCOON,ioos:station:TCOON:005:1,2016-12-02T17:18:00Z,27.6346,-97.2370,1.166,1111122 
TCOON,ioos:station:TCOON:005:1,2016-12-02T18:18:00Z,27.6346,-97.2370,1.153,1111122 
TCOON,ioos:station:TCOON:005:1,2016-12-02T19:18:00Z,27.6346,-97.2370,1.145,1111122 
TCOON,ioos:station:TCOON:005:1,2016-12-02T20:18:00Z,27.6346,-97.2370,1.138,1111122 
TCOON,ioos:station:TCOON:005:1,2016-12-02T21:18:00Z,27.6346,-97.2370,1.136,1111122 
TCOON,ioos:station:TCOON:005:1,2016-12-02T22:18:00Z,27.6346,-97.2370,1.144,1111122 
TCOON,ioos:station:TCOON:005:1,2016-12-02T23:18:00Z,27.6346,-97.2370,1.157,1111122 
TCOON,ioos:station:TCOON:005:1,2016-12-03T00:18:00Z,27.6346,-97.2370,1.183,1111122 
TCOON,ioos:station:TCOON:005:1,2016-12-03T01:18:00Z,27.6346,-97.2370,1.205,1111122 
TCOON,ioos:station:TCOON:005:1,2016-12-03T02:18:00Z,27.6346,-97.2370,1.231,1111122 
TCOON,ioos:station:TCOON:005:1,2016-12-03T03:18:00Z,27.6346,-97.2370,1.259,1111122 
TCOON,ioos:station:TCOON:005:1,2016-12-03T04:18:00Z,27.6346,-97.2370,1.281,1111122 
TCOON,ioos:station:TCOON:005:1,2016-12-03T05:18:00Z,27.6346,-97.2370,1.303,1111122 
TCOON,ioos:station:TCOON:005:1,2016-12-03T06:18:00Z,27.6346,-97.2370,1.333,1111122 
TCOON,ioos:station:TCOON:005:1,2016-12-03T07:18:00Z,27.6346,-97.2370,1.361,1111122 
TCOON,ioos:station:TCOON:005:1,2016-12-03T08:18:00Z,27.6346,-97.2370,1.375,1111122 
TCOON,ioos:station:TCOON:005:1,2016-12-03T09:18:00Z,27.6346,-97.2370,1.381,1111122 
TCOON,ioos:station:TCOON:005:1,2016-12-03T10:18:00Z,27.6346,-97.2370,1.396,1111122 
TCOON,ioos:station:TCOON:005:1,2016-12-03T11:18:00Z,27.6346,-97.2370,1.401,1111122 
TCOON,ioos:station:TCOON:005:1,2016-12-03T12:18:00Z,27.6346,-97.2370,1.405,1111122 
TCOON,ioos:station:TCOON:005:1,2016-12-03T13:18:00Z,27.6346,-97.2370,1.396,1111122 
TCOON,ioos:station:TCOON:005:1,2016-12-03T14:18:00Z,27.6346,-97.2370,1.385,1111122 
TCOON,ioos:station:TCOON:005:1,2016-12-03T15:18:00Z,27.6346,-97.2370,1.376,1111122 
TCOON,ioos:station:TCOON:005:1,2016-12-03T16:18:00Z,27.6346,-97.2370,1.364,1111122 
TCOON,ioos:station:TCOON:005:1,2016-12-03T17:18:00Z,27.6346,-97.2370,1.343,1111122 
TCOON,ioos:station:TCOON:005:1,2016-12-03T18:18:00Z,27.6346,-97.2370,1.321,1111122 
TCOON,ioos:station:TCOON:005:1,2016-12-03T19:18:00Z,27.6346,-97.2370,1.308,1111122 
TCOON,ioos:station:TCOON:005:1,2016-12-03T20:18:00Z,27.6346,-97.2370,1.298,1111122 
TCOON,ioos:station:TCOON:005:1,2016-12-03T21:18:00Z,27.6346,-97.2370,1.293,1111122 
TCOON,ioos:station:TCOON:005:1,2016-12-03T22:18:00Z,27.6346,-97.2370,1.29,1111122 
TCOON,ioos:station:TCOON:005:1,2016-12-03T23:18:00Z,27.6346,-97.2370,1.294,1111122 
TCOON,ioos:station:TCOON:005:1,2016-12-04T00:18:00Z,27.6346,-97.2370,1.316,1111122 
TCOON,ioos:station:TCOON:005:1,2016-12-04T01:18:00Z,27.6346,-97.2370,1.327,1111122 
TCOON,ioos:station:TCOON:005:1,2016-12-04T02:18:00Z,27.6346,-97.2370,1.331,1111122 
TCOON,ioos:station:TCOON:005:1,2016-12-04T03:18:00Z,27.6346,-97.2370,1.331,1111122 
TCOON,ioos:station:TCOON:005:1,2016-12-04T04:18:00Z,27.6346,-97.2370,1.348,1111122 
TCOON,ioos:station:TCOON:005:1,2016-12-04T05:18:00Z,27.6346,-97.2370,1.359,1111122 
TCOON,ioos:station:TCOON:005:1,2016-12-04T06:18:00Z,27.6346,-97.2370,1.354,1111122 
TCOON,ioos:station:TCOON:005:1,2016-12-04T07:18:00Z,27.6346,-97.2370,1.376,1111122 
TCOON,ioos:station:TCOON:005:1,2016-12-04T08:18:00Z,27.6346,-97.2370,1.4,1111122 
TCOON,ioos:station:TCOON:005:1,2016-12-04T09:18:00Z,27.6346,-97.2370,1.437,1111122 
TCOON,ioos:station:TCOON:005:1,2016-12-04T10:18:00Z,27.6346,-97.2370,1.447,1111122 
TCOON,ioos:station:TCOON:005:1,2016-12-04T11:18:00Z,27.6346,-97.2370,1.454,1111122 
TCOON,ioos:station:TCOON:005:1,2016-12-04T12:18:00Z,27.6346,-97.2370,1.446,1111122 
TCOON,ioos:station:TCOON:005:1,2016-12-04T13:18:00Z,27.6346,-97.2370,1.413,1111122 
TCOON,ioos:station:TCOON:005:1,2016-12-04T14:18:00Z,27.6346,-97.2370,1.417,1111122 
TCOON,ioos:station:TCOON:005:1,2016-12-04T15:18:00Z,27.6346,-97.2370,1.426,1111122 
TCOON,ioos:station:TCOON:005:1,2016-12-04T16:18:00Z,27.6346,-97.2370,1.411,1111122 
TCOON,ioos:station:TCOON:005:1,2016-12-04T17:18:00Z,27.6346,-97.2370,1.392,1111122 
TCOON,ioos:station:TCOON:005:1,2016-12-04T18:18:00Z,27.6346,-97.2370,1.381,1111122 
TCOON,ioos:station:TCOON:005:1,2016-12-04T19:18:00Z,27.6346,-97.2370,1.358,1111122 
TCOON,ioos:station:TCOON:005:1,2016-12-04T20:18:00Z,27.6346,-97.2370,1.336,1111122 
TCOON,ioos:station:TCOON:005:1,2016-12-04T21:18:00Z,27.6346,-97.2370,1.322,1111122 
TCOON,ioos:station:TCOON:005:1,2016-12-04T22:18:00Z,27.6346,-97.2370,1.303,1111122 
TCOON,ioos:station:TCOON:005:1,2016-12-04T23:18:00Z,27.6346,-97.2370,1.29,1111122 
TCOON,ioos:station:TCOON:005:1,2016-12-05T00:18:00Z,27.6346,-97.2370,1.298,1111122 
TCOON,ioos:station:TCOON:005:1,2016-12-05T01:18:00Z,27.6346,-97.2370,1.307,1111122 
TCOON,ioos:station:TCOON:005:1,2016-12-05T02:18:00Z,27.6346,-97.2370,1.317,1111122 
TCOON,ioos:station:TCOON:005:1,2016-12-05T03:18:00Z,27.6346,-97.2370,1.337,1111122 
TCOON,ioos:station:TCOON:005:1,2016-12-05T04:18:00Z,27.6346,-97.2370,1.354,1111122 
TCOON,ioos:station:TCOON:005:1,2016-12-05T05:18:00Z,27.6346,-97.2370,1.37,1111122 
TCOON,ioos:station:TCOON:005:1,2016-12-05T06:18:00Z,27.6346,-97.2370,1.378,1111122 
TCOON,ioos:station:TCOON:005:1,2016-12-05T07:18:00Z,27.6346,-97.2370,1.389,1111122 
TCOON,ioos:station:TCOON:005:1,2016-12-05T08:18:00Z,27.6346,-97.2370,1.397,1111122 
TCOON,ioos:station:TCOON:005:1,2016-12-05T09:18:00Z,27.6346,-97.2370,1.396,1111122 
TCOON,ioos:station:TCOON:005:1,2016-12-05T10:18:00Z,27.6346,-97.2370,1.393,1111122 
TCOON,ioos:station:TCOON:005:1,2016-12-05T11:18:00Z,27.6346,-97.2370,1.39,1111122 
TCOON,ioos:station:TCOON:005:1,2016-12-05T12:18:00Z,27.6346,-97.2370,1.379,1111122 
TCOON,ioos:station:TCOON:005:1,2016-12-05T13:18:00Z,27.6346,-97.2370,1.374,1111122 
TCOON,ioos:station:TCOON:005:1,2016-12-05T14:18:00Z,27.6346,-97.2370,1.368,1111122 
TCOON,ioos:station:TCOON:005:1,2016-12-05T15:18:00Z,27.6346,-97.2370,1.363,1111122 
TCOON,ioos:station:TCOON:005:1,2016-12-05T21:42:00Z,27.6346,-97.2370,1.239,1111122 
TCOON,ioos:station:TCOON:005:1,2016-12-05T22:18:00Z,27.6346,-97.2370,1.231,1111122 
TCOON,ioos:station:TCOON:005:1,2016-12-05T23:18:00Z,27.6346,-97.2370,1.222,1111122 
TCOON,ioos:station:TCOON:005:1,2016-12-06T00:18:00Z,27.6346,-97.2370,1.225,1111122 
TCOON,ioos:station:TCOON:005:1,2016-12-06T01:18:00Z,27.6346,-97.2370,1.228,1111122 
TCOON,ioos:station:TCOON:005:1,2016-12-06T02:18:00Z,27.6346,-97.2370,1.231,1111122 
TCOON,ioos:station:TCOON:005:1,2016-12-06T03:18:00Z,27.6346,-97.2370,1.24,1111122 
TCOON,ioos:station:TCOON:005:1,2016-12-06T04:18:00Z,27.6346,-97.2370,1.253,1111122 
TCOON,ioos:station:TCOON:005:1,2016-12-06T05:18:00Z,27.6346,-97.2370,1.267,1111122 
TCOON,ioos:station:TCOON:005:1,2016-12-06T06:18:00Z,27.6346,-97.2370,1.277,1111122 
TCOON,ioos:station:TCOON:005:1,2016-12-06T07:18:00Z,27.6346,-97.2370,1.282,1111122 
TCOON,ioos:station:TCOON:005:1,2016-12-06T08:18:00Z,27.6346,-97.2370,1.281,1111122 
TCOON,ioos:station:TCOON:005:1,2016-12-06T09:18:00Z,27.6346,-97.2370,1.283,1111122 
TCOON,ioos:station:TCOON:005:1,2016-12-06T10:18:00Z,27.6346,-97.2370,1.28,1111122 
TCOON,ioos:station:TCOON:005:1,2016-12-06T11:18:00Z,27.6346,-97.2370,1.272,1111122 
TCOON,ioos:station:TCOON:005:1,2016-12-06T12:18:00Z,27.6346,-97.2370,1.257,1111122 
TCOON,ioos:station:TCOON:005:1,2016-12-06T13:18:00Z,27.6346,-97.2370,1.244,1111122 
TCOON,ioos:station:TCOON:005:1,2016-12-06T14:18:00Z,27.6346,-97.2370,1.244,1111122 
TCOON,ioos:station:TCOON:005:1,2016-12-06T15:18:00Z,27.6346,-97.2370,1.22,1111122 
TCOON,ioos:station:TCOON:005:1,2016-12-06T16:18:00Z,27.6346,-97.2370,1.195,1111122 
TCOON,ioos:station:TCOON:005:1,2016-12-06T17:18:00Z,27.6346,-97.2370,1.177,1111122 
TCOON,ioos:station:TCOON:005:1,2016-12-06T18:18:00Z,27.6346,-97.2370,1.17,1111122 
TCOON,ioos:station:TCOON:005:1,2016-12-06T19:18:00Z,27.6346,-97.2370,1.157,1111122 
TCOON,ioos:station:TCOON:005:1,2016-12-06T20:18:00Z,27.6346,-97.2370,1.15,1111122 
TCOON,ioos:station:TCOON:005:1,2016-12-06T21:18:00Z,27.6346,-97.2370,1.142,1111122 
TCOON,ioos:station:TCOON:005:1,2016-12-06T22:18:00Z,27.6346,-97.2370,1.126,1111122 
TCOON,ioos:station:TCOON:005:1,2016-12-06T23:18:00Z,27.6346,-97.2370,1.114,1111122 
TCOON,ioos:station:TCOON:005:1,2016-12-07T00:18:00Z,27.6346,-97.2370,1.102,1111122 
TCOON,ioos:station:TCOON:005:1,2016-12-07T01:18:00Z,27.6346,-97.2370,1.095,1111122 
TCOON,ioos:station:TCOON:005:1,2016-12-07T02:18:00Z,27.6346,-97.2370,1.1,1111122 
TCOON,ioos:station:TCOON:005:1,2016-12-07T03:18:00Z,27.6346,-97.2370,1.112,1111122 
TCOON,ioos:station:TCOON:005:1,2016-12-07T04:18:00Z,27.6346,-97.2370,1.096,1111122 
TCOON,ioos:station:TCOON:005:1,2016-12-07T05:18:00Z,27.6346,-97.2370,1.077,1111122 
TCOON,ioos:station:TCOON:005:1,2016-12-07T06:18:00Z,27.6346,-97.2370,1.074,1111122 
TCOON,ioos:station:TCOON:005:1,2016-12-07T07:18:00Z,27.6346,-97.2370,1.074,1111122 
TCOON,ioos:station:TCOON:005:1,2016-12-07T08:18:00Z,27.6346,-97.2370,1.073,1111122 
TCOON,ioos:station:TCOON:005:1,2016-12-07T09:18:00Z,27.6346,-97.2370,1.074,1111122 
TCOON,ioos:station:TCOON:005:1,2016-12-07T10:18:00Z,27.6346,-97.2370,1.074,1111122 
TCOON,ioos:station:TCOON:005:1,2016-12-07T11:18:00Z,27.6346,-97.2370,1.08,1111122 
TCOON,ioos:station:TCOON:005:1,2016-12-07T12:18:00Z,27.6346,-97.2370,1.084,1111122 
TCOON,ioos:station:TCOON:005:1,2016-12-07T13:18:00Z,27.6346,-97.2370,1.089,1111122 
TCOON,ioos:station:TCOON:005:1,2016-12-07T14:18:00Z,27.6346,-97.2370,1.089,1111122 
TCOON,ioos:station:TCOON:005:1,2016-12-07T15:18:00Z,27.6346,-97.2370,1.087,1111122 
TCOON,ioos:station:TCOON:005:1,2016-12-07T16:18:00Z,27.6346,-97.2370,1.091,1111122 
TCOON,ioos:station:TCOON:005:1,2016-12-07T17:18:00Z,27.6346,-97.2370,1.1,1111122 
TCOON,ioos:station:TCOON:005:1,2016-12-07T18:18:00Z,27.6346,-97.2370,1.098,1111122 
TCOON,ioos:station:TCOON:005:1,2016-12-07T19:18:00Z,27.6346,-97.2370,1.095,1111122 
TCOON,ioos:station:TCOON:005:1,2016-12-07T20:18:00Z,27.6346,-97.2370,1.092,1111122 
TCOON,ioos:station:TCOON:005:1,2016-12-07T21:18:00Z,27.6346,-97.2370,1.088,1111122 
TCOON,ioos:station:TCOON:005:1,2016-12-07T22:18:00Z,27.6346,-97.2370,1.082,1111122 
TCOON,ioos:station:TCOON:005:1,2016-12-07T23:18:00Z,27.6346,-97.2370,1.086,1111122 
TCOON,ioos:station:TCOON:005:1,2016-12-08T00:18:00Z,27.6346,-97.2370,1.082,1111122 
TCOON,ioos:station:TCOON:005:1,2016-12-08T01:18:00Z,27.6346,-97.2370,1.086,1111122 
TCOON,ioos:station:TCOON:005:1,2016-12-08T02:18:00Z,27.6346,-97.2370,1.09,1111122 
TCOON,ioos:station:TCOON:005:1,2016-12-08T03:54:00Z,27.6346,-97.2370,1.106,1111122 
TCOON,ioos:station:TCOON:005:1,2016-12-08T04:30:00Z,27.6346,-97.2370,1.115,1111122 
TCOON,ioos:station:TCOON:005:1,2016-12-08T05:18:00Z,27.6346,-97.2370,1.127,1111122 
TCOON,ioos:station:TCOON:005:1,2016-12-08T06:24:00Z,27.6346,-97.2370,1.142,1111122 
TCOON,ioos:station:TCOON:005:1,2016-12-08T07:18:00Z,27.6346,-97.2370,1.158,1111122 
TCOON,ioos:station:TCOON:005:1,2016-12-08T08:18:00Z,27.6346,-97.2370,1.178,1111122 
TCOON,ioos:station:TCOON:005:1,2016-12-08T09:18:00Z,27.6346,-97.2370,1.207,1111122 
TCOON,ioos:station:TCOON:005:1,2016-12-08T10:18:00Z,27.6346,-97.2370,1.223,1111122 
TCOON,ioos:station:TCOON:005:1,2016-12-08T11:18:00Z,27.6346,-97.2370,1.238,1111122 
TCOON,ioos:station:TCOON:005:1,2016-12-08T12:18:00Z,27.6346,-97.2370,1.236,1111122 
TCOON,ioos:station:TCOON:005:1,2016-12-08T13:18:00Z,27.6346,-97.2370,1.24,1111122 
TCOON,ioos:station:TCOON:005:1,2016-12-08T14:18:00Z,27.6346,-97.2370,1.239,1111122 
TCOON,ioos:station:TCOON:005:1,2016-12-08T15:18:00Z,27.6346,-97.2370,1.251,1111122 
TCOON,ioos:station:TCOON:005:1,2016-12-08T16:18:00Z,27.6346,-97.2370,1.251,1111122 
TCOON,ioos:station:TCOON:005:1,2016-12-08T17:18:00Z,27.6346,-97.2370,1.267,1111122 
TCOON,ioos:station:TCOON:005:1,2016-12-08T18:18:00Z,27.6346,-97.2370,1.27,1111122 
TCOON,ioos:station:TCOON:005:1,2016-12-08T19:18:00Z,27.6346,-97.2370,1.276,1111122 
TCOON,ioos:station:TCOON:005:1,2016-12-08T20:18:00Z,27.6346,-97.2370,1.272,1111122 
TCOON,ioos:station:TCOON:005:1,2016-12-08T21:18:00Z,27.6346,-97.2370,1.27,1111122 
TCOON,ioos:station:TCOON:005:1,2016-12-08T22:18:00Z,27.6346,-97.2370,1.265,1111122 
TCOON,ioos:station:TCOON:005:1,2016-12-08T23:18:00Z,27.6346,-97.2370,1.265,1111122 
TCOON,ioos:station:TCOON:005:1,2016-12-09T00:18:00Z,27.6346,-97.2370,1.27,1111122 
TCOON,ioos:station:TCOON:005:1,2016-12-09T01:18:00Z,27.6346,-97.2370,1.271,1111122 
TCOON,ioos:station:TCOON:005:1,2016-12-09T02:18:00Z,27.6346,-97.2370,1.257,1111122 
TCOON,ioos:station:TCOON:005:1,2016-12-09T03:18:00Z,27.6346,-97.2370,1.243,1111122 
TCOON,ioos:station:TCOON:005:1,2016-12-09T04:24:00Z,27.6346,-97.2370,1.233,1111122 
TCOON,ioos:station:TCOON:005:1,2016-12-09T05:18:00Z,27.6346,-97.2370,1.225,1111122 
TCOON,ioos:station:TCOON:005:1,2016-12-09T06:18:00Z,27.6346,-97.2370,1.217,1111122 
TCOON,ioos:station:TCOON:005:1,2016-12-09T07:18:00Z,27.6346,-97.2370,1.212,1111122 
TCOON,ioos:station:TCOON:005:1,2016-12-09T09:18:00Z,27.6346,-97.2370,1.209,1111122 
TCOON,ioos:station:TCOON:005:1,2016-12-09T10:18:00Z,27.6346,-97.2370,1.212,1111122 
TCOON,ioos:station:TCOON:005:1,2016-12-09T11:18:00Z,27.6346,-97.2370,1.209,1111122 
TCOON,ioos:station:TCOON:005:1,2016-12-09T12:18:00Z,27.6346,-97.2370,1.201,1111122 
TCOON,ioos:station:TCOON:005:1,2016-12-09T13:18:00Z,27.6346,-97.2370,1.183,1111122 
TCOON,ioos:station:TCOON:005:1,2016-12-09T14:18:00Z,27.6346,-97.2370,1.17,1111122 
TCOON,ioos:station:TCOON:005:1,2016-12-09T15:18:00Z,27.6346,-97.2370,1.159,1111122 
TCOON,ioos:station:TCOON:005:1,2016-12-09T16:24:00Z,27.6346,-97.2370,1.145,1111122 
TCOON,ioos:station:TCOON:005:1,2016-12-09T17:18:00Z,27.6346,-97.2370,1.144,1111122 
TCOON,ioos:station:TCOON:005:1,2016-12-09T18:18:00Z,27.6346,-97.2370,1.15,1111122 
TCOON,ioos:station:TCOON:005:1,2016-12-09T19:18:00Z,27.6346,-97.2370,1.156,1111122 
TCOON,ioos:station:TCOON:005:1,2016-12-09T20:18:00Z,27.6346,-97.2370,1.166,1111122 
TCOON,ioos:station:TCOON:005:1,2016-12-09T21:18:00Z,27.6346,-97.2370,1.179,1111122 
TCOON,ioos:station:TCOON:005:1,2016-12-09T22:18:00Z,27.6346,-97.2370,1.179,1111122 
TCOON,ioos:station:TCOON:005:1,2016-12-09T23:18:00Z,27.6346,-97.2370,1.183,1111122 
TCOON,ioos:station:TCOON:005:1,2016-12-10T00:18:00Z,27.6346,-97.2370,1.2,1111122 
TCOON,ioos:station:TCOON:005:1,2016-12-10T01:18:00Z,27.6346,-97.2370,1.199,1111122 
TCOON,ioos:station:TCOON:005:1,2016-12-10T02:18:00Z,27.6346,-97.2370,1.205,1111122 
TCOON,ioos:station:TCOON:005:1,2016-12-10T03:18:00Z,27.6346,-97.2370,1.213,1111122 
TCOON,ioos:station:TCOON:005:1,2016-12-10T04:24:00Z,27.6346,-97.2370,1.23,1111122 
TCOON,ioos:station:TCOON:005:1,2016-12-10T05:18:00Z,27.6346,-97.2370,1.238,1111122 
TCOON,ioos:station:TCOON:005:1,2016-12-10T06:18:00Z,27.6346,-97.2370,1.248,1111122 
TCOON,ioos:station:TCOON:005:1,2016-12-10T07:18:00Z,27.6346,-97.2370,1.251,1111122 
TCOON,ioos:station:TCOON:005:1,2016-12-10T08:18:00Z,27.6346,-97.2370,1.254,1111122 
TCOON,ioos:station:TCOON:005:1,2016-12-10T09:18:00Z,27.6346,-97.2370,1.252,1111122 
TCOON,ioos:station:TCOON:005:1,2016-12-10T10:18:00Z,27.6346,-97.2370,1.251,1111122 
TCOON,ioos:station:TCOON:005:1,2016-12-10T11:18:00Z,27.6346,-97.2370,1.247,1111122 
TCOON,ioos:station:TCOON:005:1,2016-12-10T12:18:00Z,27.6346,-97.2370,1.237,1111122 
TCOON,ioos:station:TCOON:005:1,2016-12-10T13:18:00Z,27.6346,-97.2370,1.221,1111122 
TCOON,ioos:station:TCOON:005:1,2016-12-10T14:18:00Z,27.6346,-97.2370,1.202,1111122 
TCOON,ioos:station:TCOON:005:1,2016-12-10T15:18:00Z,27.6346,-97.2370,1.193,1111122 
TCOON,ioos:station:TCOON:005:1,2016-12-10T16:18:00Z,27.6346,-97.2370,1.194,1111122 
TCOON,ioos:station:TCOON:005:1,2016-12-10T17:18:00Z,27.6346,-97.2370,1.2,1111122 
TCOON,ioos:station:TCOON:005:1,2016-12-10T18:18:00Z,27.6346,-97.2370,1.203,1111122 
TCOON,ioos:station:TCOON:005:1,2016-12-10T19:18:00Z,27.6346,-97.2370,1.209,1111122 
TCOON,ioos:station:TCOON:005:1,2016-12-10T20:18:00Z,27.6346,-97.2370,1.221,1111122 
TCOON,ioos:station:TCOON:005:1,2016-12-10T21:18:00Z,27.6346,-97.2370,1.238,1111122 
TCOON,ioos:station:TCOON:005:1,2016-12-10T22:18:00Z,27.6346,-97.2370,1.246,1111122 
TCOON,ioos:station:TCOON:005:1,2016-12-10T23:18:00Z,27.6346,-97.2370,1.253,1111122 
TCOON,ioos:station:TCOON:005:1,2016-12-11T00:18:00Z,27.6346,-97.2370,1.262,1111122 
TCOON,ioos:station:TCOON:005:1,2016-12-11T01:18:00Z,27.6346,-97.2370,1.265,1111122 
TCOON,ioos:station:TCOON:005:1,2016-12-11T02:18:00Z,27.6346,-97.2370,1.276,1111122 
TCOON,ioos:station:TCOON:005:1,2016-12-11T03:18:00Z,27.6346,-97.2370,1.286,1111122 
TCOON,ioos:station:TCOON:005:1,2016-12-11T04:18:00Z,27.6346,-97.2370,1.286,1111122 
TCOON,ioos:station:TCOON:005:1,2016-12-11T05:18:00Z,27.6346,-97.2370,1.295,1111122 
TCOON,ioos:station:TCOON:005:1,2016-12-11T06:18:00Z,27.6346,-97.2370,1.301,1111122 
TCOON,ioos:station:TCOON:005:1,2016-12-11T07:18:00Z,27.6346,-97.2370,1.308,1111122 
TCOON,ioos:station:TCOON:005:1,2016-12-11T08:18:00Z,27.6346,-97.2370,1.312,1111122 
TCOON,ioos:station:TCOON:005:1,2016-12-11T09:18:00Z,27.6346,-97.2370,1.311,1111122 
TCOON,ioos:station:TCOON:005:1,2016-12-11T10:18:00Z,27.6346,-97.2370,1.3,1111122 
TCOON,ioos:station:TCOON:005:1,2016-12-11T11:18:00Z,27.6346,-97.2370,1.286,1111122 
TCOON,ioos:station:TCOON:005:1,2016-12-11T12:18:00Z,27.6346,-97.2370,1.268,1111122 
TCOON,ioos:station:TCOON:005:1,2016-12-11T13:18:00Z,27.6346,-97.2370,1.25,1111122 
TCOON,ioos:station:TCOON:005:1,2016-12-11T14:18:00Z,27.6346,-97.2370,1.234,1111122 
TCOON,ioos:station:TCOON:005:1,2016-12-11T15:18:00Z,27.6346,-97.2370,1.22,1111122 
TCOON,ioos:station:TCOON:005:1,2016-12-11T16:18:00Z,27.6346,-97.2370,1.205,1111122 
TCOON,ioos:station:TCOON:005:1,2016-12-11T17:18:00Z,27.6346,-97.2370,1.204,1111122 
TCOON,ioos:station:TCOON:005:1,2016-12-11T18:18:00Z,27.6346,-97.2370,1.205,1111122 
TCOON,ioos:station:TCOON:005:1,2016-12-11T19:18:00Z,27.6346,-97.2370,1.207,1111122 
TCOON,ioos:station:TCOON:005:1,2016-12-11T20:18:00Z,27.6346,-97.2370,1.214,1111122 
TCOON,ioos:station:TCOON:005:1,2016-12-11T21:18:00Z,27.6346,-97.2370,1.23,1111122 
TCOON,ioos:station:TCOON:005:1,2016-12-11T22:18:00Z,27.6346,-97.2370,1.249,1111122 
TCOON,ioos:station:TCOON:005:1,2016-12-11T23:18:00Z,27.6346,-97.2370,1.267,1111122 
TCOON,ioos:station:TCOON:005:1,2016-12-12T00:18:00Z,27.6346,-97.2370,1.28,1111122 
TCOON,ioos:station:TCOON:005:1,2016-12-12T01:18:00Z,27.6346,-97.2370,1.283,1111122 
TCOON,ioos:station:TCOON:005:1,2016-12-12T02:18:00Z,27.6346,-97.2370,1.284,1111122 
TCOON,ioos:station:TCOON:005:1,2016-12-12T03:18:00Z,27.6346,-97.2370,1.294,1111122 
TCOON,ioos:station:TCOON:005:1,2016-12-12T04:18:00Z,27.6346,-97.2370,1.296,1111122 
TCOON,ioos:station:TCOON:005:1,2016-12-12T05:18:00Z,27.6346,-97.2370,1.3,1111122 
TCOON,ioos:station:TCOON:005:1,2016-12-12T06:18:00Z,27.6346,-97.2370,1.288,1111122 
TCOON,ioos:station:TCOON:005:1,2016-12-12T07:18:00Z,27.6346,-97.2370,1.28,1111122 
TCOON,ioos:station:TCOON:005:1,2016-12-12T08:18:00Z,27.6346,-97.2370,1.269,1111122 
TCOON,ioos:station:TCOON:005:1,2016-12-12T09:18:00Z,27.6346,-97.2370,1.25,1111122 
TCOON,ioos:station:TCOON:005:1,2016-12-12T10:18:00Z,27.6346,-97.2370,1.233,1111122 
TCOON,ioos:station:TCOON:005:1,2016-12-12T11:18:00Z,27.6346,-97.2370,1.213,1111122 
TCOON,ioos:station:TCOON:005:1,2016-12-12T12:18:00Z,27.6346,-97.2370,1.195,1111122 
TCOON,ioos:station:TCOON:005:1,2016-12-12T13:18:00Z,27.6346,-97.2370,1.173,1111122 
TCOON,ioos:station:TCOON:005:1,2016-12-12T14:18:00Z,27.6346,-97.2370,1.155,1111122 
TCOON,ioos:station:TCOON:005:1,2016-12-12T15:24:00Z,27.6346,-97.2370,1.135,1111122 
TCOON,ioos:station:TCOON:005:1,2016-12-12T16:24:00Z,27.6346,-97.2370,1.127,1111122 
TCOON,ioos:station:TCOON:005:1,2016-12-12T17:24:00Z,27.6346,-97.2370,1.113,1111122 
TCOON,ioos:station:TCOON:005:1,2016-12-12T18:18:00Z,27.6346,-97.2370,1.104,1111122 
TCOON,ioos:station:TCOON:005:1,2016-12-12T19:18:00Z,27.6346,-97.2370,1.107,1111122 
TCOON,ioos:station:TCOON:005:1,2016-12-12T20:18:00Z,27.6346,-97.2370,1.117,1111122 
TCOON,ioos:station:TCOON:005:1,2016-12-12T21:18:00Z,27.6346,-97.2370,1.131,1111122 
TCOON,ioos:station:TCOON:005:1,2016-12-12T22:18:00Z,27.6346,-97.2370,1.142,1111122 
TCOON,ioos:station:TCOON:005:1,2016-12-12T23:18:00Z,27.6346,-97.2370,1.154,1111122 
TCOON,ioos:station:TCOON:005:1,2016-12-13T00:18:00Z,27.6346,-97.2370,1.166,1111122 
TCOON,ioos:station:TCOON:005:1,2016-12-13T01:18:00Z,27.6346,-97.2370,1.18,1111122 
TCOON,ioos:station:TCOON:005:1,2016-12-13T02:18:00Z,27.6346,-97.2370,1.191,1111122 